CAPE
0 0 0 0 0 0 0 0 1 3 3 2 0 0 1 1 0 0 0 0 0 0 38 0 0 0 0 4 144 28 382 460 451 387 345 262 277 798 959 1276 1319 1427 1455 1785 2484
0 0 0 0 0 0 0 0 0 3 3 1 0 0 1 0 0 0 0 0 0 31 0 0 0 0 0 76 81 172 368 438 339 470 401 280 269 641 1114 1266 1448 2118 2238 2394 2408
0 0 0 0 0 0 0 0 1 3 0 0 1 0 1 0 0 0 0 0 0 151 0 0 0 0 0 47 19 7 388 351 360 367 392 337 305 416 761 1170 1272 1721 2448 2381 2406
0 0 0 0 0 0 0 0 2 3 1 0 1 1 0 0 0 0 0 15 215 0 0 0 0 0 0 0 0 70 196 505 387 315 236 204 173 301 621 727 963 1401 2373 2409 2518
0 0 0 0 0 0 0 1 3 3 1 0 1 0 0 0 0 16 48 124 0 0 0 0 0 0 0 0 34 299 324 334 296 220 140 104 181 332 637 741 761 1608 2215 2335 2479
0 0 0 0 0 0 0 1 3 1 0 0 0 0 0 0 0 0 0 0 0 0 0 0 0 0 0 0 422 416 179 211 304 113 41 198 245 473 873 699 1320 1958 2211 1994 2085
0 0 0 0 0 0 0 2 1 1 0 0 0 0 0 0 0 0 0 0 0 0 0 0 0 0 16 43 81 174 218 289 250 3 85 258 273 783 1205 1479 1663 2040 2167 1656 1807
0 0 0 0 0 0 1 2 1 0 0 0 0 0 0 0 0 0 0 0 0 0 0 0 0 30 171 239 289 241 271 216 114 0 196 147 344 594 1433 1676 1760 1913 2024 1758 2043
0 0 0 0 0 0 1 1 0 0 0 0 0 0 0 0 0 0 0 0 0 0 0 0 0 54 183 438 529 520 447 121 54 0 2 137 458 756 1297 1587 1657 1810 2051 2091 2037
2 1 1 1 1 0 0 0 0 0 0 0 0 0 0 0 0 0 0 0 0 0 0 0 0 56 212 346 308 178 367 40 34 4 0 297 628 463 943 1252 1494 1782 1994 2232 2231
2 3 2 1 1 0 0 0 0 0 0 0 0 0 0 0 0 0 0 0 0 0 0 0 0 0 4 130 96 295 285 17 0 0 22 393 701 827 700 1011 1312 1648 1920 2070 2085
2 4 2 1 0 0 0 0 0 0 0 0 0 0 0 0 0 0 0 0 0 0 0 0 0 0 0 0 44 113 197 61 0 0 0 0 113 532 1024 943 1055 1291 1431 1620 1776
2 2 3 1 0 0 0 0 0 0 0 0 0 0 0 0 0 0 0 0 0 0 0 0 0 0 0 0 0 3 23 0 2 0 0 203 174 291 812 1141 1218 1192 1218 1135 1174
1 2 2 1 0 0 0 0 0 0 0 0 0 0 0 0 0 0 0 0 0 0 0 0 0 0 0 0 0 0 0 0 0 0 16 31 130 295 465 665 829 942 867 679 824
5 1 2 1 0 0 0 0 0 0 0 0 0 0 0 0 0 0 0 0 0 0 0 0 0 0 0 0 0 0 0 0 0 0 0 123 45 50 859 382 471 628 592 725 1535
4 2 1 0 0 0 0 0 0 0 0 0 0 0 0 0 0 0 0 0 0 0 0 0 0 0 0 0 0 0 0 0 0 0 54 191 141 60 129 582 704 779 1003 1339 1786
3 2 1 0 0 0 0 0 0 0 0 0 0 0 0 0 0 0 0 0 0 0 0 0 0 0 0 0 0 0 0 1 3 42 50 582 279 74 442 836 843 1008 1179 1538 1802
1 1 0 0 0 0 0 0 0 0 0 0 0 0 0 0 0 0 0 0 0 0 0 0 0 0 0 0 0 0 0 6 37 66 73 489 43 227 672 653 817 943 941 1887 1871
0 0 0 0 0 0 0 0 0 0 0 0 0 0 0 0 0 0 0 0 0 0 0 0 0 0 0 0 0 0 0 0 6 3 2 22 123 517 753 868 1296 900 1170 1671 1940
0 0 0 0 0 0 0 0 0 0 0 0 0 0 0 0 0 0 0 0 0 0 0 0 0 0 0 0 0 0 0 0 1 22 79 86 196 183 1190 1112 1261 1520 1146 2008 2279
0 0 0 0 0 0 0 0 0 0 0 0 0 0 0 0 0 0 0 0 0 0 0 0 0 0 0 0 0 0 0 0 16 177 119 139 272 1024 977 1068 962 1669 1220 1814 2346
0 0 0 0 0 0 0 0 0 0 0 0 0 0 0 0 0 0 0 0 0 0 0 0 0 0 0 0 0 0 0 2 28 164 94 250 233 646 893 885 817 1477 1870 1853 2354
0 0 0 0 0 0 0 0 0 0 0 0 0 0 0 0 0 0 0 0 0 0 4 0 0 0 1 0 0 0 0 5 103 452 355 210 324 864 816 765 990 1773 2060 2222 2398
0 0 0 0 0 0 0 0 0 0 0 0 0 0 0 0 0 0 0 0 69 72 114 33 30 41 37 59 6 0 0 18 101 169 84 206 152 1158 924 921 1324 1836 2174 1810 1653
0 0 1 0 0 0 0 0 0 0 0 0 0 0 0 0 0 0 0 0 2 30 312 368 231 98 47 83 89 3 37 35 96 120 167 127 136 282 1204 1077 1221 1825 2099 1337 1104
2 1 0 3 0 0 0 0 0 0 0 0 0 0 0 0 0 0 0 0 0 140 155 540 373 405 182 159 209 169 30 45 57 93 144 225 233 1174 1116 1185 1153 1247 1657 1556 1225
0 0 0 13 44 38 12 1 0 0 0 0 0 0 0 4 1 0 39 236 263 251 214 393 150 410 48 218 249 194 120 144 134 279 297 345 739 1062 1006 921 734 449 326 1148 508
CIN
0 0 0 0 0 0 0 0 0 0 0 0 0 0 0 0 0 0 0 0 0 0 -882 0 0 0 0 -21 -155 -163 -3 0 0 -1 -3 -3 -2 -15 -23 -18 -32 -39 -23 -46 -92
0 0 0 0 0 0 0 0 0 0 0 0 0 0 0 0 0 0 0 0 0 -935 0 0 0 0 0 -184 -138 -71 0 -1 -20 -14 -15 -14 -12 -8 -8 -13 -35 -54 -91 -91 -95
0 0 0 0 0 0 0 0 0 0 0 0 0 0 0 0 0 0 0 0 0 -903 0 0 0 0 0 -190 -191 -127 -3 -33 -25 -22 -26 -13 -8 -4 -6 -5 -1 -8 -77 -98 -82
0 0 0 0 0 0 0 0 0 0 0 0 0 0 0 0 0 0 -80 -1289 -962 0 0 0 0 0 0 0 0 -119 -76 -30 -29 -23 -26 -12 -12 -8 -7 -5 -20 -22 -66 -83 -59
0 0 0 0 0 0 0 0 0 0 0 0 0 -1 0 0 0 -394 -1211 -717 0 0 0 0 0 0 0 0 -134 -98 -66 -51 -42 -47 -47 -35 -24 -15 -20 -30 -66 -41 -61 -48 -31
0 0 0 0 0 0 0 0 0 0 0 0 0 0 0 0 0 0 0 0 0 0 0 0 0 0 0 0 -90 -104 -128 -71 -24 -76 -95 -35 -13 -40 -31 -45 -57 -48 -41 -23 -17
0 0 0 0 0 0 0 0 0 0 0 0 0 0 0 0 0 0 0 0 0 0 0 0 0 0 -287 -203 -222 -150 -78 -44 -45 -15 -54 -42 -4 -14 -50 -62 -38 -24 -26 -23 -22
0 0 0 0 0 0 0 0 0 0 0 0 0 0 0 0 0 0 0 0 0 0 0 0 0 -339 -237 -227 -125 -92 -66 -37 -104 -6 -56 -39 0 -14 -56 -37 -22 -23 -16 -22 -21
0 0 0 0 0 0 0 0 -1 -1 0 0 0 0 0 0 0 0 0 0 0 0 0 0 0 -315 -242 -125 -38 -50 -9 -66 -75 0 -139 -49 -6 -70 -48 -29 -14 -13 -16 -8 -16
0 0 0 0 0 0 0 0 0 0 0 0 0 0 0 0 0 0 0 0 0 0 0 0 0 -269 -168 -75 -21 -38 -35 -80 -68 -81 0 -20 -8 -14 -54 -30 -15 -11 -14 -16 -10
0 0 0 0 0 0 0 0 0 0 0 0 0 0 0 0 0 0 0 0 0 0 0 0 0 -1 -165 -138 -129 -107 -86 -98 -36 0 -105 -7 -9 -15 -39 -31 -17 -19 -21 -19 -16
0 0 0 0 0 0 0 0 0 0 0 0 0 0 0 0 0 0 0 0 0 0 0 0 0 0 0 0 -196 -139 -91 -61 0 0 0 0 -4 -10 -29 -27 -22 -21 -17 -16 -18
0 0 0 0 0 0 0 0 0 0 0 0 0 0 0 0 0 0 0 0 0 0 0 0 0 0 0 0 0 -67 -84 0 -43 0 0 -23 -1 -1 -20 -38 -41 -48 -26 -23 -21
0 0 0 0 0 0 0 0 0 0 0 0 0 0 0 0 0 0 0 0 0 0 0 0 0 0 0 0 0 0 0 0 0 0 -6 -36 0 -3 -7 -12 -31 -45 -47 -42 -30
0 0 0 0 0 0 0 0 0 0 0 0 0 0 0 0 0 0 0 0 0 0 0 0 0 0 0 0 0 0 0 0 0 0 0 -2 -1 0 -16 -11 -12 -33 -49 -47 -42
0 0 0 0 0 0 0 0 0 0 0 0 0 0 0 0 0 0 0 0 0 0 0 0 0 0 0 0 0 0 0 0 0 0 0 -4 -1 0 0 -13 -30 -47 -62 -58 -33
0 0 0 0 0 0 0 0 0 0 0 0 0 0 0 0 0 0 0 0 0 0 0 0 0 0 0 0 0 0 0 0 0 -1 0 -32 -3 0 -9 -67 -70 -61 -51 -39 -38
0 0 0 0 0 0 0 0 0 0 0 0 0 0 0 0 0 0 0 0 0 0 0 0 0 0 0 0 0 0 0 0 0 0 0 -52 0 0 -75 -100 -116 -101 -62 -34 -19
0 0 0 0 0 0 0 0 0 0 0 0 0 0 0 0 0 0 0 0 0 0 0 0 0 0 0 0 0 0 0 0 0 0 0 0 0 -16 -100 -101 -96 -88 -68 -27 -12
0 0 0 0 0 0 0 0 0 0 0 0 0 0 0 0 0 0 0 0 0 0 0 0 0 0 0 0 0 0 0 0 0 0 0 0 -1 0 -42 -60 -64 -69 -66 -18 -6
0 0 0 0 0 0 0 0 0 0 0 0 0 0 0 0 0 0 0 0 0 0 0 0 0 0 0 0 0 0 0 0 0 -1 0 0 -1 -18 -20 -56 -51 -51 -63 -8 0
0 0 0 0 0 0 0 0 0 0 0 0 0 0 0 0 0 0 0 0 0 0 0 0 0 0 0 0 0 0 0 0 -1 -1 0 0 0 -77 -84 -99 -101 -58 -49 -11 0
0 0 0 0 0 0 0 0 0 0 0 0 0 0 0 0 0 0 0 0 0 0 -3 0 0 0 0 0 0 0 0 -3 -1 -1 0 0 0 -117 -111 -107 -98 -65 -43 -12 0
0 0 0 0 0 0 0 0 0 0 0 0 0 0 0 0 0 0 0 0 -50 -27 -316 -17 -9 -3 0 -5 -1 0 0 0 0 0 -1 -1 0 -36 -71 -62 -77 -87 -25 -40 -24
0 0 0 0 0 0 0 0 0 0 0 0 0 0 0 0 0 0 0 0 -14 -328 -59 -11 -6 -2 -9 -13 -16 0 -1 0 0 -1 0 -2 -3 -1 -33 -57 -64 -58 -8 -83 -74
0 0 0 0 0 0 0 0 0 0 0 0 0 0 0 0 0 0 0 0 0 -26 -20 -20 -1 0 0 -5 -14 -5 -5 -1 -1 0 0 -1 0 -32 -46 -86 -129 -99 -18 -18 -28
0 0 0 -12 0 0 0 0 0 0 0 0 0 0 0 -1 -2 0 -14 -22 -20 -16 -9 -7 -1 -1 0 -2 -5 -2 -1 -8 -2 -9 -4 -1 -4 -31 -78 -107 -144 -202 -167 -30 -163
Wind_Speed
14 14 13 13 12 13 12 12 10 10 10 11 11 9 8 8 10 8 10 2 8 14 11 16 13 10 10 9 7 4 6 2 5 4 5 8 6 3 1 6 4 3 5 9 18
15 14 14 14 14 13 13 13 12 11 11 11 9 8 7 7 9 11 4 8 9 17 19 19 15 13 12 11 6 8 7 6 4 5 7 7 6 4 6 6 6 7 9 16 17
16 16 15 15 15 15 13 13 13 12 11 9 8 7 6 8 7 6 7 11 12 15 15 13 11 14 13 8 9 5 6 2 1 5 7 9 7 3 9 6 8 12 14 17 17
18 18 18 17 16 16 15 15 14 13 11 8 7 6 4 7 3 7 11 13 13 15 14 13 14 14 13 11 9 9 6 4 6 8 9 10 9 6 7 9 4 3 17 19 18
18 18 19 19 18 17 17 16 15 12 10 7 5 4 6 7 1 8 11 14 18 15 15 14 14 14 13 12 7 11 7 8 7 10 10 9 9 7 6 2 3 9 15 16 15
18 19 19 19 19 17 17 18 15 12 9 4 3 3 7 5 3 7 12 17 13 15 13 11 9 7 8 9 10 4 7 10 10 5 1 8 9 4 4 3 6 11 14 15 15
20 19 20 20 20 20 19 17 15 10 4 2 5 6 6 4 2 8 13 10 11 8 12 10 6 10 2 9 2 7 11 9 6 4 4 10 14 4 3 6 9 12 14 13 13
20 20 20 20 21 20 19 16 8 3 3 4 5 5 5 3 3 9 10 9 9 5 7 6 5 7 7 2 8 9 10 10 8 4 2 8 6 8 5 8 10 11 12 13 14
19 20 20 20 20 19 18 12 3 2 2 4 7 5 2 4 7 11 12 11 10 7 4 5 8 8 6 10 10 9 10 3 3 1 8 6 11 7 4 7 9 10 10 12 13
19 20 21 21 21 19 18 5 3 5 6 5 4 6 5 3 7 10 9 10 7 11 6 9 9 10 10 10 11 8 8 6 4 2 9 9 8 7 6 7 9 10 8 10 13
19 19 21 22 21 19 11 7 5 7 9 9 11 5 2 7 9 11 14 11 8 13 12 13 12 15 15 14 13 6 7 9 4 5 8 5 6 1 4 8 9 9 9 10 11
21 21 22 23 22 19 8 4 6 7 11 9 11 12 11 1 8 12 15 12 11 12 13 9 17 16 11 10 11 11 11 11 5 4 8 8 9 3 4 8 8 9 9 10 11
21 21 22 24 24 8 5 5 6 4 8 2 3 4 3 15 11 17 21 15 12 14 16 15 2 9 14 14 14 14 12 9 7 8 8 8 11 7 4 7 5 7 8 7 9
20 20 21 30 6 5 2 4 9 5 7 8 7 7 7 6 11 10 21 11 8 14 13 13 12 7 14 17 14 13 11 9 13 8 7 3 7 8 3 6 10 10 10 9 6
19 20 18 14 10 5 5 7 3 5 7 4 7 6 5 8 10 13 20 13 11 9 9 6 9 14 15 14 14 12 3 6 6 9 7 11 8 5 5 8 6 9 8 4 1
20 19 17 4 5 8 7 8 6 8 7 5 6 5 9 12 8 13 18 10 5 6 12 11 1 7 14 12 10 6 8 6 7 10 11 3 7 8 4 2 1 5 5 3 6
21 17 9 4 3 6 9 6 8 9 4 5 2 3 4 10 10 17 21 19 12 11 12 13 13 9 7 9 10 13 12 9 10 10 9 4 6 9 3 4 1 4 6 4 8
25 20 8 7 5 7 7 9 11 2 4 1 4 4 6 5 7 13 18 18 19 12 5 10 13 18 14 17 10 17 14 11 7 9 5 4 7 0 2 2 5 8 6 7 9
25 4 5 3 8 6 8 11 6 7 1 3 6 7 6 6 4 11 16 19 16 16 10 8 10 5 9 16 17 13 15 16 11 6 9 9 5 8 4 5 6 7 7 8 8
7 5 4 4 8 8 9 13 6 4 3 5 7 3 7 2 9 10 14 13 17 13 16 3 6 11 11 7 8 9 14 10 10 14 8 7 5 7 8 9 8 7 8 7 8
6 6 6 4 8 8 11 14 10 8 5 6 6 5 3 3 3 6 10 7 9 10 14 13 8 9 10 12 14 10 12 10 9 5 10 9 6 5 6 8 8 5 5 8 10
5 6 4 8 8 9 12 9 5 8 11 9 7 9 8 2 6 6 7 2 4 5 14 16 10 11 14 5 6 18 19 18 11 13 10 9 5 6 5 6 5 6 5 6 10
5 5 6 6 8 10 9 10 12 10 12 8 9 9 7 6 6 9 5 3 3 7 8 9 9 10 11 9 9 9 12 11 12 7 7 10 2 5 6 7 7 6 7 8 9
6 5 6 7 4 8 12 15 14 9 12 9 7 6 8 11 10 5 9 6 3 2 4 6 5 11 10 4 7 18 15 13 13 11 11 11 7 7 8 9 10 9 9 11 7
3 2 6 5 9 8 5 5 15 10 10 8 11 13 12 11 13 11 12 7 8 7 5 7 8 10 12 5 6 11 14 15 17 16 15 12 7 1 10 9 9 11 10 11 8
6 5 4 6 5 9 8 13 11 12 8 11 12 10 9 12 12 10 12 11 10 8 8 6 7 6 11 6 9 11 15 13 15 16 11 10 10 3 10 12 12 10 10 11 10
5 3 6 2 6 8 8 10 12 4 10 14 5 9 11 8 5 9 8 6 6 9 8 7 7 8 12 4 6 11 12 12 12 9 12 13 2 9 12 12 11 9 8 12 12
Wind_Direction
1 1 355 351 346 341 336 331 325 320 315 315 315 315 314 313 283 220 236 172 171 171 205 160 185 184 199 213 236 265 238 167 71 12 11 36 4 102 161 151 189 136 57 105 137
358 357 353 348 346 340 334 329 323 321 317 312 312 313 305 308 265 243 212 131 143 168 173 174 179 184 201 209 203 247 263 60 6 7 347 343 337 336 216 177 167 142 110 126 148
357 352 351 347 346 339 334 324 322 320 317 309 306 299 300 282 260 87 156 158 171 193 180 190 185 196 209 207 194 191 277 28 75 358 327 320 296 223 247 212 218 193 153 154 159
354 350 349 344 344 338 333 326 323 320 314 305 297 291 288 242 2 37 135 153 163 184 172 176 185 200 211 203 195 247 235 269 303 314 305 307 317 287 246 278 336 166 159 163 167
351 348 345 342 341 337 331 326 324 320 309 300 288 274 232 226 34 79 134 145 162 179 183 184 189 207 215 208 198 235 258 292 284 294 310 297 279 303 287 197 145 140 161 168 168
350 346 340 338 337 335 331 328 322 314 305 282 240 218 248 258 64 132 141 158 169 180 181 197 205 212 221 219 231 90 279 284 286 343 308 297 316 264 93 193 170 157 166 167 174
348 343 339 338 335 334 333 329 321 301 290 206 197 250 251 343 36 147 160 169 161 194 178 193 248 213 164 203 200 257 268 266 242 337 17 320 248 229 102 172 165 169 173 163 175
345 341 337 334 333 330 331 330 333 38 149 178 209 246 289 81 152 165 159 152 176 150 215 183 248 263 249 314 222 247 251 262 108 291 118 322 294 85 147 170 172 171 170 170 178
343 338 334 331 329 329 328 323 263 182 181 180 230 254 163 137 188 170 183 167 164 163 121 196 237 254 226 239 235 200 254 215 185 289 330 325 324 73 179 192 190 184 179 184 188
341 337 333 331 328 328 325 270 193 202 209 232 262 225 182 132 141 159 176 159 166 168 168 198 215 234 218 225 234 243 214 186 265 359 316 287 265 238 182 217 205 202 192 197 205
341 338 333 330 326 326 310 221 238 182 219 284 305 295 196 108 153 178 165 168 167 183 197 200 216 219 226 227 268 285 264 260 259 322 296 271 280 258 208 220 209 210 203 220 223
342 339 337 329 324 318 274 16 45 340 298 273 258 259 262 267 207 174 177 183 186 204 201 183 229 229 243 229 238 239 249 256 281 188 290 293 290 248 235 238 228 212 223 222 218
343 341 336 327 321 292 329 60 340 272 259 242 205 227 194 208 216 180 190 205 206 212 199 225 103 234 214 222 229 234 244 244 271 307 261 282 241 181 208 248 217 233 242 252 251
342 340 339 325 288 354 156 4 316 233 268 147 171 142 157 206 216 196 198 182 199 214 207 242 251 252 206 225 220 240 220 251 260 258 256 297 278 171 224 244 229 237 235 238 244
337 335 334 332 318 267 44 326 310 227 264 103 120 108 157 217 121 188 191 205 211 184 198 191 211 207 208 214 217 247 237 242 247 248 275 190 257 268 178 272 234 219 218 246 316
327 328 328 199 241 276 314 306 221 231 233 152 147 200 217 195 183 143 182 228 256 212 227 270 191 226 229 217 221 189 204 215 241 244 230 177 274 274 358 14 334 139 176 193 142
320 313 290 300 311 337 300 241 226 243 118 136 165 277 264 174 162 172 181 196 193 200 209 207 216 204 213 189 201 214 206 207 216 204 246 100 243 271 96 118 187 187 205 153 153
320 310 185 236 258 308 260 221 235 284 223 129 281 254 234 183 180 184 186 202 219 230 276 218 213 204 191 224 176 201 216 252 219 237 212 152 252 139 87 273 183 205 205 149 171
311 198 233 192 219 234 231 219 225 243 283 262 247 244 161 169 263 191 202 207 202 211 231 206 236 174 215 206 222 183 222 246 274 251 279 266 226 229 189 177 172 188 189 179 163
313 270 220 127 174 207 225 240 245 248 265 238 258 264 216 163 216 206 184 208 215 209 229 197 267 183 164 185 221 254 211 202 225 265 256 206 259 271 185 192 188 198 187 164 148
260 261 87 186 195 208 226 226 233 215 233 244 250 238 223 214 250 214 189 126 217 197 216 231 241 148 163 206 204 190 220 237 296 313 297 270 216 80 166 181 189 161 181 168 158
290 234 100 188 206 208 229 220 226 224 214 240 265 266 254 211 237 223 222 205 134 175 193 208 226 242 225 143 273 209 214 213 237 206 228 301 320 129 166 197 209 146 151 172 159
288 294 151 244 225 199 211 218 237 229 203 213 227 235 212 236 239 237 211 133 215 227 187 162 215 226 206 190 201 230 213 221 230 284 222 262 239 139 146 171 146 126 129 147 159
276 238 165 212 281 292 199 219 212 219 251 235 251 234 233 238 223 249 219 171 161 245 24 210 219 255 259 359 220 204 231 216 217 229 239 245 272 150 173 169 137 125 133 115 122
224 78 355 194 206 234 242 229 213 200 217 214 216 241 225 236 228 213 237 219 189 152 200 223 232 224 264 299 266 260 216 209 213 236 263 266 260 235 175 161 130 123 128 128 133
319 330 332 281 263 231 193 216 229 205 229 211 234 211 214 238 251 233 224 232 233 168 210 202 241 237 251 217 244 241 237 254 233 250 271 279 270 39 133 123 117 117 139 149 159
9 284 277 164 213 229 195 222 222 230 237 249 262 250 226 231 339 306 305 309 319 273 200 211 231 224 247 169 251 229 223 227 213 241 238 230 46 140 139 142 128 125 132 97 96